Starlink 34067

operational
NORAD ID: 64115 Int'l Des: 2025-110 Owner: SPXS Country: US Constellation: starlink
LEOCIRCULAR

About Starlink 34067

Description loading...

Live Position

Loading 3D Globe...

Upcoming Passes

Altitude History

Altitude vs Time

uPlot chart will show altitude changes over time

Two-Line Element Set

1 64115U 25110V 25308.66670139 .00076797 00000-0 19142-2 0 9997
2 64115 53.1604 247.5157 0001196 91.8220 152.2082 15.39563500 5910
Epoch: Nov 4, 2025 • Age: 8 hours

Current Status

Altitude 464.0 km
Velocity 7.63 km/s
Sub-Earth Point -46.79°S, 148.83°E
Launch Date May 23, 2025
Age 0.4 years
Type internet

Technical Details

Classification Payload
Mass 575.00 kg
Dry Mass 530.00 kg
Total Mass 575.00 kg
Length 0.30 m
Diameter 4.10 m
Span 29.00 m
Shape Box + pan
Manufacturer SPXS
Bus Type Starlink V2MO
Phase Status In Orbit
Owner/State SPXS/US

Large Constellations

Loading constellations...